User: anonymous   Login
Location: Bats
(43.6587°N, 0.4584°W)
Time: 17:11:06
(UTC+00:00)
Language:

Meteor 1-16 Rocket - Orbit

View from above orbital plane
View from above orbital plane
View from above satellite
View from above satellite

Ground track
Ground track

The orbit is defined by the following mean orbital elements,

1 07210U          26064.26116625 +.00000000 +00000-0 +10961-3 0 00000
2 07210  81.2389 170.0498 0079630 324.3994  35.1881 14.13622211    00
Epoch (UTC): 05 March 2026 06:16:04
Eccentricity: 0.0079630
inclination: 81.2389°
perigee height: 789 km
apogee height: 905 km
right ascension of ascending node: 170.0498°
argument of perigee: 324.3994°
revolutions per day: 14.13622211
mean anomaly at epoch: 35.1881°

The dashed part of the orbit path shows where the satellite is in the earth's shadow,  

DLR